Location: Tom
(33.0437°N, 96.9452°W)
Time: 00:59:21
(UTC-06:00)

Envisat - Pass Details

Date: 01 February 2019
Orbit: 764 x 766 km, 98.2° (Epoch: 17 February)

Event Time Altitude Azimuth Distance (km) Brightness Sun altitude
Rises 19:32:47 0° 176° (S) 3,216 6.3 -19.7°
Reaches altitude 10° 19:35:06 10° 180° (S) 2,293 5.5 -20.2°
Maximum altitude 19:40:05 59° 259° (W) 881 3.5 -21.2°
Drops below altitude 10° 19:45:06 10° 339° (NNW) 2,306 5.6 -22.3°
Sets 19:47:27 0° 343° (NNW) 3,235 6.4 -22.8°
